Regional Weather Roundup
Issued by NWS

Home | Current Version | Previous Version | Graphics & Text | Print | Product List | Glossary Off
Versions: 1 2 3 4 5 6 7 8 9 10 11 12 13 14 15 16 17 18 19 20 21 22 23 24 25 26 27 28 29 30 31 32 33 34 35 36 37 38 39 40 41 42 43 44 45 46 47 48 49 50

000
ASUS43 KTOP 211959
RWRKS

WEATHER ROUNDUP FOR KANSAS
NATIONAL WEATHER SERVICE GOODLAND KS
200 PM CST SAT JAN 21 2017

NOTE:  "FAIR" INDICATES FEW OR NO CLOUDS BELOW 12,000 FEET WITH NO
SIGNIFICANT WEATHER AND/OR OBSTRUCTIONS TO VISIBILITY.

KSZ001>006-013>018-027>032-041>047-212100-
NORTHWEST KANSAS

CITY           SKY/WX    TMP DP  RH WIND       PRES   REMARKS
GOODLAND       CLOUDY    46  34  62 E10       29.37F
HAYS           SUNNY     53  35  50 SE6       29.41F
HILL CITY      SUNNY     54  35  48 SE8       29.40F
RUSSELL        SUNNY     53  37  54 E7        29.40F
$$

KSZ061>065-074>080-084>089-212100-
SOUTHWEST KANSAS

CITY           SKY/WX    TMP DP  RH WIND       PRES   REMARKS
DODGE CITY     MOSUNNY   52  35  52 SE12      29.37F
ELKHART          N/A     53  35  50 SE7         N/A
GARDEN CITY    SUNNY     50  34  54 SE12      29.34F
GREAT BEND     PTSUNNY   53  38  56 SE14      29.41F
LIBERAL        PTSUNNY   55  39  54 S7        29.32F
$$

KSZ066>073-081>083-090>101-212100-
SOUTHEAST KANSAS

CITY           SKY/WX    TMP DP  RH WIND       PRES   REMARKS
CHANUTE        LGT RAIN  54  38  54 E3        29.47F
COFFEYVILLE    MOSUNNY   55  42  61 NE8       29.46F
HUTCHINSON     CLOUDY    51  38  60 SE8       29.43F
MEDICINE LODGE   N/A     46  37  71 E9        29.39F
NEWTON         CLOUDY    49  40  71 SE6       29.44F
PARSONS        CLOUDY    53  39  59 E3        29.48F
WICHITA INTL   CLOUDY    50  38  63 E6        29.41F
WICHITA JABRA  CLOUDY    49  39  68 E6        29.42F
WINFIELD       CLOUDY    52  38  58 E8        29.41F
$$

KSZ007>012-019>026-033>040-048>060-102>105-212100-
NORTHEAST KANSAS

CITY           SKY/WX    TMP DP  RH WIND       PRES   REMARKS
CONCORDIA      SUNNY     52  39  61 VRB5      29.44F
EMPORIA        CLOUDY    54  38  54 SE8       29.45F
LAWRENCE       SUNNY     55  42  61 S8        29.47F
MANHATTAN      SUNNY     54  40  59 SW3       29.45F
OLATHE IND     SUNNY     55  41  59 S13       29.48F
OLATHE EXE     SUNNY     53  40  61 S12       29.48F
SALINA         SUNNY     52  41  66 SE3       29.45F
TOPEKA BILLARD SUNNY     55  41  59 VRB6      29.46F
TOPEKA FORBES  SUNNY     56  40  55 S9        29.46F
$$



USA.gov is the U.S. government's official web portal to all federal, state and local government web resources and services.